Flag for U.S.A. Weather past 2 weeks in Los Angeles, California, U.S.A.

Now
55 °F

Clear.


Feels Like: 55 °F
Forecast: 40 / 61 °F
Wind: No wind

Location: Los Angeles / USC Campus Downtown

Current Time: Dec 26, 2014 at 7:07:32 PM

Latest Report: Dec 26, 2014 at 6:47 PM


Visibility: 10 mi

Pressure: 30.12 "Hg

Humidity: 31%

Dew point: 25 °F

Location of Los AngelesLocation

Historic Weather in Los Angeles — Graph

°F

Los Angeles temperature yesterday

Maximum temperature yesterday: 64 °F (at 10:47 AM)
Minimum temperature yesterday: 51 °F (at 10:47 PM)
Average temperature yesterday: 58 °F

Past Weeks' High & Low Weather Summary

 TemperatureHumidityPressure
High82 °F (Dec 23, 1:47 PM)93% (Dec 12, 4:04 AM)30.23 "Hg (Dec 12, 4:04 AM)
Low43 °F (Dec 26, 4:47 AM)15% (Dec 26, 2:47 PM)29.77 "Hg (Dec 25, 2:47 AM)
Average58 °F66%30.03 "Hg
* Reported Dec 11 5:47 PM — Dec 26 5:47 PM, Los Angeles, Weather by CustomWeather, © 2014

Note: Actual official high and low records may vary slightly from our data, if they occured in-between our weather recording intervals... More about our weather records

Advertising

Los Angeles weather history for previous 24 hours

 ConditionsComfort  
Time TempWeatherWind HumidityBarometerVisibility
5:47 PM
Dec 26
55 °FClear.No wind30%30.09 "Hg10 mi
4:47 PM58 °FSunny.No wind27%30.08 "Hg10 mi
3:47 PM62 °FSunny.3 mph18%30.06 "Hg10 mi
2:47 PM63 °FSunny.No wind15%30.04 "Hg10 mi
1:47 PM63 °FSunny.No wind16%30.04 "Hg10 mi
12:47 PM62 °FSunny.No wind16%30.04 "Hg10 mi
11:47 AM61 °FSunny.No wind19%30.06 "Hg10 mi
10:47 AM60 °FSunny.No wind21%30.09 "Hg10 mi
9:47 AM56 °FSunny.No wind24%30.09 "Hg10 mi
8:47 AM49 °FSunny.No wind41%30.07 "Hg10 mi
7:47 AM44 °FSunny.No wind47%30.05 "Hg10 mi
6:47 AM45 °FClear.3 mph40%30.03 "Hg10 mi
5:47 AM45 °FClear.3 mph40%30.00 "Hg10 mi
4:47 AM43 °FClear.No wind51%29.98 "Hg10 mi
3:47 AM44 °FClear.No wind49%29.96 "Hg10 mi
2:47 AM46 °FClear.No wind40%29.96 "Hg10 mi
1:47 AM50 °FClear.No wind32%29.94 "Hg10 mi
12:47 AM51 °FClear.3 mph31%29.93 "Hg10 mi
11:47 PM
Dec 25
51 °FClear.No wind32%29.92 "Hg10 mi
10:47 PM51 °FClear.No wind35%29.93 "Hg10 mi
9:47 PM53 °FClear.3 mph30%29.92 "Hg10 mi
8:47 PM53 °FClear.7 mph30%29.90 "Hg10 mi
7:47 PM54 °FClear.7 mph27%29.89 "Hg10 mi
Weather by CustomWeather, © 2014

See weather overviewHow to use our weather pages